Regional Weather Roundup
Issued by NWS Charleston, WV

Home | Current Version | Previous Version | Graphics & Text | Print | Product List | Glossary On
Versions: 1 2 3 4 5 6 7 8 9 10 11 12 13 14 15 16 17 18 19 20 21 22 23 24 25 26 27 28 29 30 31 32 33 34 35 36 37 38 39 40 41 42 43 44 45 46 47 48 49
000
ASUS41 KRLX 281110
RWRRLX
West Virginia Regional Weather Roundup
National Weather Service Charleston WV
700 AM EDT TUE JUL 28 2015

Note: "fair" indicates few or no clouds below 12,000 feet with no
significant weather and/or obstructions to visibility.

WVZ003-281200-
Northern Panhandle of West Virginia

CITY           SKY/WX    TMP DP  RH WIND       PRES   REMARKS
WHEELING       CLEAR     67  64  90 CALM      30.04R FOG
$$

WVZ009-281200-
Northwest West Virginia

CITY           SKY/WX    TMP DP  RH WIND       PRES   REMARKS
PARKERSBURG    FOG       70  69  97 CALM      30.03S VSB<1/4
$$

WVZ006-281200-
Western West Virginia

CITY           SKY/WX    TMP DP  RH WIND       PRES   REMARKS
HUNTINGTON     FOG       70  70 100 CALM      30.00R VSB 1/4
$$

WVZ015-281200-
West Central West Virginia

CITY           SKY/WX    TMP DP  RH WIND       PRES   REMARKS
CHARLESTON     FOG       70  69  97 CALM      30.01R VSB 1/8
$$

WVZ022-031-281200-
North Central West Virginia

CITY           SKY/WX    TMP DP  RH WIND       PRES   REMARKS
CLARKSBURG     CLEAR     67  66  97 CALM      30.03S FOG
MORGANTOWN     CLEAR     71  65  81 CALM      30.05R
$$

WVZ025-035-042-045-281200-
Southern West Virginia

CITY           SKY/WX    TMP DP  RH WIND       PRES   REMARKS
BECKLEY        PTCLDY    69  67  93 CALM      30.08S
LOGAN          FOG       70  70 100 CALM      30.01S VSB<1/4
BLUEFIELD      FOG       69  65  86 CALM      30.12R VSB 1/4
LEWISBURG      FOG       67  65  94 CALM      30.09F VSB 1/4
$$

WVZ047-281200-
Northern Mountains of West Virginia

CITY           SKY/WX    TMP DP  RH WIND       PRES   REMARKS
ELKINS         CLOUDY    67  65  93 CALM      30.08R
$$

WVZ052-281200-
Eastern Panhandle of West Virginia

CITY           SKY/WX    TMP DP  RH WIND       PRES   REMARKS
MARTINSBURG    CLEAR     70  68  93 CALM      30.04R FOG
PETERSBURG     FOG      N/A N/A N/A CALM      30.06R VSB<1/4
$$



USA.gov is the U.S. government's official web portal to all federal, state and local government web resources and services.